STARLINK-36853, 68097

Orbit data source: Space-Track

STARLINK-36853, 68097 is a payload satellite owned by SpaceX/Seattle (US) in LEO that was launched on Wed, 04 Mar 2026 UTC via an FALCON 9 launch vehicle from the Air Force Eastern Test Range (AFETR). Payload-class satellites include a variety of spacecraft equipped with specific instruments for various scientific and technological missions. These include communications satellites like Starlink; space stations such as the ISS; scientific satellites like the Hubble; Earth observation satellites from companies like Planet Labs, Umbra, and HawkEye 360; GPS; miniature CubeSats for education and research; and military/defense satellites.

Loading next visibility...
Identifier
68097, 2026-042AE
Orbit
LEO
Country
Flag of USUS
Related business
Manufacturer
SpaceX/Seattle
Mission
Operational Commercial Communications
Bus & Motor
STARLINK V2MO, Unknown motor
Mass
575 kg wet, ~530 kg dry
Launch date (UTC)
2026-03-04 (2 months ago)
Launch vehicle
FALCON 9
Launch site
Air Force Eastern Test Range (AFETR)
Object type
Payload
Rocket body
Debris
Shape & HBR
Box + 2 Pan, 17.7 m
Radar Cross Section
36.964 m²

Expand to show TLE details & history
Last TLE update: 9 hours ago

TLE from 9 hours ago
0 STARLINK-36853
1 68097U 26042AE  26132.02167554  .00016000  00000-0  48369-3 0  9998
2 68097  53.1594 244.4073 0000626  84.8806 275.2268 15.34397073 11995
Epoch: 2026-05-12T00:31Z
TLE epoch observation values (Epoch: 2026-05-12T00:31:12.766Z)
Latitude
-0.00003°
Longitude
6.80205°
Altitude
463.574 km
Speed
7.636 km/s
True Right ascension
16h 17m 37s
True Declination
0° 00' 00"
Sunlit
Object was in full shadow at epoch
Visualization orbit readout
Latitude
Unknown
Longitude
Unknown
Altitude
Unknown
Speed
Unknown
Apparent Right ascension
Unknown
Apparent Declination
Unknown
Sunlit
N/A
Visualization observer readout
Local Sidereal Time
17:52:53
Azimuth
Unknown
Elevation
Unknown
Doppler factor
Unknown
Orbital elements
Apogee altitude
463.397 km
Perigee altitude
462.541 km
Semi-major axis
6,841.106 km
Eccentricity
0.00006
Inclination
53.1594°
RAAN
244.4073°
Arg. of periapsis
84.8806°
True anomaly
275.21966°
Mean anomaly
275.2268°
Eccentric anomaly
275.22323°
Mean motion
3.83578 °/min
Orbital period
93.85 mins
BSTAR
0.00048369
Loading maneuver chart data...
Computing Atmospheric mass density...
Loading historical data...
Loading historical data...
Loading historical data...
Loading historical data...
Loading historical data...
Loading historical data...
Loading historical data...

Documentation

Showing up to 5 results
|